sat.trackr.live / text

‹ back to catalog

TIANMU-1 16

NORAD 58701 · 2024-004B

PAYLOAD ACTIVE UNKNOWN

§ Identity

Operator
Country
PRC
Launch date
2024-01-05
Launch site
JSC
Launch vehicle
Mass (kg)
RCS (m²)

Purposes: earth_obs

External: N2YO · Heavens-Above · Gunter

§ Orbital elements

Epoch: 2026-09-19T08:59:14.235648Z

Period
94.27 min
Inclination
97.4622°
Eccentricity
0.0006248
Mean motion
15.27494593 rev/d
Perigee alt
479.0 km
Apogee alt
487.6 km
Semi-major
6,861.4 km
B*
5.9592e-5
RAAN
87.7907°
Arg perigee
29.7915°
Mean anomaly
330.3679°
Rev number
15,015

§ Raw data

TIANMU-1 161 58701U 24004B   26262.37447032  .00001528  00000+0  59592-4 0  99982 58701  97.4622  87.7907 0006248  29.7915 330.3679 15.27494593150156

JSON: /api/v1/satellites/58701 · /tle

For live sub-satellite position, see the globe view (requires WebGL).

§ Visibility from observer

Set your observer location to see the next 7 days of passes ≥ 10°. The values pass through the URL so the page stays shareable.

No JS? Fill the form by hand. The geolocation button needs JavaScript.